Location: Orinda
(37.8771°N, 122.1797°W)
Time: 20:31:03
(UTC+00:00)

SJ-12 - Pass Details

Date: 21 October 2019
Orbit: 569 x 585 km, 97.6° (Epoch: 11 November)

Event Time Altitude Azimuth Distance (km) Brightness Sun altitude
Rises 13:45:07 0° 5° (N) 2,791 7.4 -8.2°
Reaches altitude 10° 13:47:18 10° 360° (N) 1,891 6.5 -7.7°
Maximum altitude 13:51:15 48° 286° (WNW) 760 4.1 -7.0°
Drops below altitude 10° 13:55:11 10° 212° (SSW) 1,887 6.3 -6.2°
Sets 13:57:23 0° 206° (SSW) 2,785 7.2 -5.8°
